Flag for U.S.A. Weather past 2 weeks in Norwalk, California, U.S.A.

Now
79 °F

Sunny.


Feels Like: 81 °F
Forecast: 66 / 87 °F
Wind: 3 mph from North

Location: Fullerton Municipal Airport

Current Time: Sep 1, 2014 at 12:15:33 PM

Latest Report: Sep 1, 2014 at 10:53 AM


Visibility: 10 mi

Pressure: 29.83 "Hg

Humidity: 58%

Dew point: 63 °F

Location of NorwalkLocation

Historic Weather in Norwalk — Graph

°F

Norwalk temperature yesterday

Maximum temperature yesterday: 86 °F (at 1:53 PM)
Minimum temperature yesterday: 70 °F (at 2:53 AM)
Average temperature yesterday: 76 °F

Past Weeks' High & Low Weather Summary

 TemperatureHumidityPressure
High96 °F (Aug 28, 2:53 PM)90% (Aug 30, 5:53 AM)30.01 "Hg (Aug 30, 5:53 AM)
Low66 °F (Aug 25, 5:53 AM)18% (Aug 28, 5:53 PM)29.72 "Hg (Aug 30, 4:53 PM)
Average76 °F59%29.88 "Hg
* Reported Aug 17 10:53 AM — Sep 1 10:53 AM, Norwalk, Weather by CustomWeather, © 2014

Note: Actual official high and low records may vary slightly from our data, if they occured in-between our weather recording intervals... More about our weather records

Advertising

Norwalk weather history for previous 24 hours

 ConditionsComfort  
Time TempWeatherWind HumidityBarometerVisibility
10:53 AM
Sep 1
79 °FSunny.3 mph58%29.83 "Hg10 mi
9:53 AM76 °FSunny.3 mph67%29.83 "Hg9 mi
8:53 AM73 °FPartly sunny.3 mph74%29.82 "Hg9 mi
7:53 AM71 °FOvercast.No wind78%29.82 "Hg8 mi
6:53 AM70 °FPassing clouds.No wind81%29.81 "Hg8 mi
5:53 AM70 °FOvercast.No wind81%29.80 "Hg10 mi
4:53 AM70 °FClear.No wind81%29.79 "Hg10 mi
3:53 AM71 °FClear.No wind78%29.79 "Hg10 mi
2:53 AM72 °FOvercast.3 mph76%29.79 "Hg10 mi
1:53 AM72 °FOvercast.5 mph76%29.80 "Hg10 mi
12:53 AM72 °FPassing clouds.3 mph78%29.80 "Hg10 mi
11:53 PM
Aug 31
73 °FPassing clouds.5 mph79%29.81 "Hg10 mi
10:53 PM72 °FPassing clouds.6 mph81%29.80 "Hg10 mi
9:53 PM73 °FClear.5 mph79%29.80 "Hg10 mi
8:53 PM74 °FClear.6 mph79%29.79 "Hg10 mi
7:53 PM76 °FSunny.7 mph74%29.77 "Hg10 mi
6:53 PM78 °FSunny.5 mph64%29.75 "Hg10 mi
5:53 PM80 °FSunny.8 mph60%29.75 "Hg10 mi
4:53 PM82 °FSunny.12 mph55%29.75 "Hg10 mi
3:53 PM84 °FSunny.9 mph43%29.76 "Hg10 mi
2:53 PM85 °FSunny.8 mph43%29.77 "Hg10 mi
1:53 PM86 °FSunny.9 mph46%29.79 "Hg10 mi
12:53 PM84 °FSunny.5 mph49%29.80 "Hg10 mi
Weather by CustomWeather, © 2014

See weather overviewHow to use our weather pages